TimeEDT,TemperatureF,Dew PointF,Humidity,Sea Level PressureIn,VisibilityMPH,Wind Direction,Wind SpeedMPH,Gust SpeedMPH,PrecipitationIn,Events,Conditions,WindDirDegrees,DateUTC
12:15 AM,42.8,39.2,87,30.36,10.0,WSW,4.6,-,N/A,,Clear,240,2013-04-28 04:15:00
12:35 AM,42.8,39.2,87,30.36,10.0,WSW,3.5,-,N/A,,Clear,250,2013-04-28 04:35:00
12:55 AM,42.8,37.4,81,30.36,10.0,WSW,4.6,-,N/A,,Clear,240,2013-04-28 04:55:00
1:15 AM,42.8,37.4,81,30.35,10.0,SW,4.6,-,N/A,,Clear,230,2013-04-28 05:15:00
1:55 AM,39.2,35.6,87,30.34,10.0,Calm,Calm,-,N/A,,Clear,0,2013-04-28 05:55:00
2:15 AM,39.2,35.6,87,30.34,10.0,Calm,Calm,-,N/A,,Clear,0,2013-04-28 06:15:00
2:35 AM,37.4,35.6,93,30.34,10.0,SW,3.5,-,N/A,,Clear,230,2013-04-28 06:35:00
2:55 AM,37.4,33.8,87,30.33,10.0,Calm,Calm,-,N/A,,Clear,0,2013-04-28 06:55:00
3:15 AM,37.4,35.6,93,30.33,10.0,SW,3.5,-,N/A,,Clear,230,2013-04-28 07:15:00
3:35 AM,37.4,35.6,93,30.33,10.0,SW,3.5,-,N/A,,Clear,230,2013-04-28 07:35:00
4:15 AM,35.6,32.0,87,30.33,10.0,Calm,Calm,-,N/A,,Clear,0,2013-04-28 08:15:00
4:35 AM,33.8,32.0,93,30.33,10.0,SE,4.6,-,N/A,,Clear,140,2013-04-28 08:35:00
4:55 AM,35.6,35.6,100,30.33,10.0,SE,3.5,-,N/A,,Clear,140,2013-04-28 08:55:00
5:15 AM,35.6,33.8,93,30.33,10.0,Calm,Calm,-,N/A,,Clear,0,2013-04-28 09:15:00
5:35 AM,33.8,32.0,93,30.33,10.0,SSE,3.5,-,N/A,,Clear,150,2013-04-28 09:35:00
5:55 AM,35.6,33.8,93,30.33,10.0,SSE,3.5,-,N/A,,Clear,150,2013-04-28 09:55:00
6:15 AM,35.6,33.8,93,30.33,10.0,SSE,4.6,-,N/A,,Clear,150,2013-04-28 10:15:00
6:55 AM,44.6,42.8,93,30.33,10.0,SSE,4.6,-,N/A,,Clear,150,2013-04-28 10:55:00
7:15 AM,46.4,42.8,87,30.34,10.0,SSE,4.6,-,N/A,,Clear,160,2013-04-28 11:15:00
7:35 AM,48.2,41.0,76,30.34,10.0,South,5.8,-,N/A,,Clear,170,2013-04-28 11:35:00
7:55 AM,50.0,41.0,71,30.35,10.0,SSE,5.8,-,N/A,,Clear,160,2013-04-28 11:55:00
8:15 AM,51.8,42.8,71,30.35,10.0,South,5.8,-,N/A,,Clear,190,2013-04-28 12:15:00
8:35 AM,51.8,41.0,67,30.36,10.0,SSW,8.1,-,N/A,,Clear,210,2013-04-28 12:35:00
9:15 AM,53.6,41.0,62,30.37,10.0,SSW,8.1,-,N/A,,Clear,200,2013-04-28 13:15:00
9:35 AM,53.6,42.8,67,30.37,10.0,SSW,5.8,-,N/A,,Clear,210,2013-04-28 13:35:00
9:55 AM,53.6,42.8,67,30.38,10.0,SSW,5.8,-,N/A,,Clear,210,2013-04-28 13:55:00
10:15 AM,55.4,42.8,63,30.38,10.0,SW,5.8,-,N/A,,Clear,220,2013-04-28 14:15:00
10:35 AM,55.4,42.8,63,30.38,10.0,SW,6.9,-,N/A,,Clear,220,2013-04-28 14:35:00
10:55 AM,57.2,42.8,59,30.38,10.0,SSW,3.5,-,N/A,,Clear,200,2013-04-28 14:55:00
11:15 AM,60.8,37.4,42,30.37,10.0,ESE,5.8,-,N/A,,Clear,120,2013-04-28 15:15:00
11:55 AM,60.8,32.0,34,30.36,10.0,South,5.8,-,N/A,,Clear,190,2013-04-28 15:55:00
12:15 PM,62.6,33.8,34,30.35,10.0,ESE,9.2,-,N/A,,Clear,110,2013-04-28 16:15:00
12:35 PM,62.6,28.4,27,30.35,10.0,ESE,8.1,-,N/A,,Clear,120,2013-04-28 16:35:00
12:55 PM,62.6,33.8,34,30.34,10.0,ESE,8.1,-,N/A,,Clear,110,2013-04-28 16:55:00
1:15 PM,62.6,33.8,34,30.34,10.0,SE,10.4,-,N/A,,Clear,140,2013-04-28 17:15:00
1:35 PM,62.6,35.6,37,30.34,10.0,SE,9.2,-,N/A,,Clear,140,2013-04-28 17:35:00
1:55 PM,62.6,35.6,37,30.33,10.0,SE,9.2,-,N/A,,Clear,130,2013-04-28 17:55:00
2:15 PM,62.6,35.6,37,30.33,10.0,ESE,9.2,-,N/A,,Clear,120,2013-04-28 18:15:00
2:55 PM,62.6,35.6,37,30.31,10.0,SE,10.4,-,N/A,,Clear,130,2013-04-28 18:55:00
3:15 PM,62.6,33.8,34,30.31,10.0,SSE,12.7,-,N/A,,Clear,160,2013-04-28 19:15:00
3:35 PM,62.6,33.8,34,30.31,10.0,South,12.7,-,N/A,,Clear,170,2013-04-28 19:35:00
3:55 PM,60.8,33.8,36,30.30,10.0,South,11.5,18.4,N/A,,Clear,170,2013-04-28 19:55:00
4:15 PM,60.8,35.6,39,30.30,10.0,South,9.2,-,N/A,,Clear,180,2013-04-28 20:15:00
4:35 PM,60.8,37.4,42,30.29,10.0,South,12.7,16.1,N/A,,Clear,180,2013-04-28 20:35:00
4:55 PM,59.0,37.4,45,30.29,10.0,South,11.5,17.3,N/A,,Clear,170,2013-04-28 20:55:00
5:15 PM,59.0,39.2,48,30.29,10.0,South,12.7,-,N/A,,Clear,180,2013-04-28 21:15:00
5:35 PM,57.2,39.2,51,30.30,10.0,South,10.4,17.3,N/A,,Clear,180,2013-04-28 21:35:00
5:55 PM,57.2,41.0,55,30.29,10.0,South,12.7,-,N/A,,Clear,190,2013-04-28 21:55:00
6:15 PM,55.4,41.0,58,30.30,10.0,South,11.5,-,N/A,,Clear,190,2013-04-28 22:15:00
6:35 PM,55.4,39.2,54,30.30,10.0,South,10.4,18.4,N/A,,Clear,190,2013-04-28 22:35:00
6:55 PM,53.6,42.8,67,30.30,10.0,South,10.4,-,N/A,,Clear,190,2013-04-28 22:55:00
7:15 PM,51.8,42.8,71,30.30,10.0,South,9.2,-,N/A,,Clear,180,2013-04-28 23:15:00
7:35 PM,51.8,41.0,67,30.30,10.0,South,10.4,-,N/A,,Clear,190,2013-04-28 23:35:00
7:55 PM,51.8,39.2,62,30.29,10.0,South,10.4,-,N/A,,Clear,190,2013-04-28 23:55:00
8:15 PM,50.0,41.0,71,30.29,10.0,South,8.1,-,N/A,,Clear,190,2013-04-29 00:15:00
8:35 PM,50.0,42.8,76,30.30,10.0,South,9.2,-,N/A,,Clear,190,2013-04-29 00:35:00
8:55 PM,48.2,42.8,82,30.29,10.0,South,9.2,-,N/A,,Clear,180,2013-04-29 00:55:00
9:15 PM,50.0,42.8,76,30.29,10.0,South,9.2,-,N/A,,Clear,180,2013-04-29 01:15:00
9:35 PM,50.0,42.8,76,30.29,10.0,South,9.2,-,N/A,,Clear,190,2013-04-29 01:35:00
9:55 PM,48.2,42.8,82,30.29,10.0,South,8.1,-,N/A,,Clear,190,2013-04-29 01:55:00
10:15 PM,48.2,44.6,87,30.29,10.0,South,8.1,-,N/A,,Clear,190,2013-04-29 02:15:00
10:35 PM,48.2,44.6,87,30.29,10.0,South,8.1,-,N/A,,Clear,190,2013-04-29 02:35:00
10:55 PM,48.2,44.6,87,30.30,10.0,SSW,8.1,-,N/A,,Clear,200,2013-04-29 02:55:00
11:15 PM,48.2,44.6,87,30.30,10.0,SSW,9.2,-,N/A,,Clear,200,2013-04-29 03:15:00
11:35 PM,46.4,44.6,93,30.30,10.0,SSW,8.1,-,N/A,,Clear,200,2013-04-29 03:35:00
11:55 PM,46.4,44.6,93,30.30,10.0,SSW,6.9,-,N/A,,Clear,210,2013-04-29 03:55:00